This is the latest recevied weather packets stored in our database for station/object KB3VSP. If no packets are shown the sender has not sent any weather packets the latest 10 day(s).
| Time | Temp. | Humidity | Pressure | Rain* | Wind** | Luminosity | Snow |
|---|---|---|---|---|---|---|---|
| 1777250085 | 11.67° C | 75% | 1020.8 hPa | 0 mm | - | 0 W/m² | - |
| 1777249783 | 12.22° C | 74% | 1020.8 hPa | 0 mm | - | 0 W/m² | - |
| 1777249478 | 12.22° C | 73% | 1020.8 hPa | 0 mm | - | 0 W/m² | - |
| 1777249176 | 12.78° C | 72% | 1020.6 hPa | 0 mm | - | 0 W/m² | - |
| 1777248872 | 12.78° C | 70% | 1020.6 hPa | 0 mm | - | 0 W/m² | - |
| 1777248569 | 13.33° C | 70% | 1020.7 hPa | 0 mm | - | 0 W/m² | - |
| 1777248266 | 13.33° C | 69% | 1020.5 hPa | 0 mm | - | 1 W/m² | - |
| 1777247961 | 13.89° C | 68% | 1020.7 hPa | 0 mm | - | 3 W/m² | - |
| 1777247656 | 13.89° C | 67% | 1020.6 hPa | 0 mm | - | 5 W/m² | - |
| 1777247353 | 13.89° C | 67% | 1020.5 hPa | 0 mm | - | 7 W/m² | - |
| 1777247051 | 14.44° C | 67% | 1020.7 hPa | 0 mm | - | 9 W/m² | - |
| 1777246747 | 14.44° C | 68% | 1020.6 hPa | 0 mm | - | 10 W/m² | - |
| 1777246443 | 14.44° C | 68% | 1020.2 hPa | 0 mm | - | 13 W/m² | - |
| 1777246141 | 15° C | 68% | 1020.3 hPa | 0 mm | - | 16 W/m² | - |
| 1777245838 | 15° C | 67% | 1020.2 hPa | 0 mm | - | 19 W/m² | - |
| 1777245536 | 15° C | 67% | 1020.3 hPa | 0 mm | - | 19 W/m² | - |
| 1777245232 | 15° C | 67% | 1020.2 hPa | 0 mm | - | 24 W/m² | - |
| 1777244928 | 15.56° C | 67% | 1020.2 hPa | 0 mm | - | 32 W/m² | - |
| 1777244623 | 15.56° C | 65% | 1020.1 hPa | 0 mm | - | 22 W/m² | - |
| 1777244319 | 15.56° C | 66% | 1020.3 hPa | 0 mm | - | 43 W/m² | - |
| 1777244017 | 15.56° C | 66% | 1020.1 hPa | 0 mm | - | 54 W/m² | - |
| 1777243715 | 16.11° C | 66% | 1020 hPa | 0 mm | - | 61 W/m² | - |
| 1777243411 | 15.56° C | 66% | 1020 hPa | 0 mm | - | 66 W/m² | - |
| 1777243107 | 16.11° C | 66% | 1019.7 hPa | 0 mm | - | 30 W/m² | - |
| 1777242804 | 15.56° C | 67% | 1019.9 hPa | 0 mm | - | 90 W/m² | - |
* Rain latest hour (hover to see other rain measurements)
** Current wind speed in m/s (hover to see current wind gust speed)